Location: Audrecelles
(50.8240°N, 1.5923°E)
Time: 02:01:39
(UTC+00:00)

Cosmos 44 - Pass Details

Date: 13 October 2025
Orbit: 576 x 774 km, 65.1° (Epoch: 13 November)

Event Time Altitude Azimuth Distance (km) Brightness Sun altitude
Exits shadow 03:08:59 14° 346° (NNW) 1,889 5.6 -29.3°
Maximum altitude 03:10:31 16° 7° (N) 1,806 5.7 -29.0°
Drops below altitude 10° 03:13:31 10° 44° (NE) 2,200 6.7 -28.6°
Sets 03:16:54 0° 66° (ENE) 3,161 8.0 -28.1°
